(202571) = 2006 EX71

Discovered at Kitt Peak on 2006-03-02 by Spacewatch.

Orbit

Orbit type: Main Belt

Note: WebGL enabled browser required.

epoch2022-01-21.0
epoch JD2459600.5
perihelion date2021-02-17.41078
perihelion JD2459262.91078
argument of perihelion (°)74.25119
ascending node (°)349.12294
inclination (°)1.79590
eccentricity0.0935728
perihelion distance (AU)2.3051347
Tisserand w.r.t. Jupiter3.4
ΔV w.r.t. Earth (km/sec)9.5
semimajor axis (AU)2.5430996
mean anomaly (°)82.04410
mean daily motion (°/day)0.24302940
aphelion distance (AU)2.781
period (years)4.06
P-vector [x]0.44807361
P-vector [y]0.80776088
P-vector [z]0.38308275
Q-vector [x]-0.89397711
Q-vector [y]0.40767770
Q-vector [z]0.18602104
absolute magnitude17.19
phase slope0.15
uncertainty0
referenceMPO 695312
observations used377
oppositions11
arc length (days)7319
first opposition used2002
last opposition used2022
residual rms (arc-secs)0.73
perturbers coarse indicatorM-v
perturbers precise indicator003Ek
first observation date used2002-03-20.0
last observation date used2022-04-03.0
computer namePan
JD of orbit computation2456789.290277
perihelion JD uncertainty (days)3.7763E-04
argument of perihelion uncertainty (°)1.9434E-04
ascending node uncertainty (°)1.6562E-04
inclination uncertainty (°)6.0168E-06
eccentricity uncertainty 2.1695E-07
perihelion distance uncertainty (AU)5.5328E-07
Minimum Orbit Intersection Distances (in AU)
for orbit epoch: 2458200.5, reference: MPO433327
Mercury1.99399
Venus1.58412
Earth1.31698
Mars0.752047
Jupiter2.46497
Saturn6.72649
Uranus15.5485
Neptune27.4309

Observations

385 total observations over interval: 2002 03 20.44437 – 2022 04 03.286605
These data are available for download (format description).

Date (UT) J2000 RA J2000 Dec Magn Location Ref
2002 03 20.44437 13 13 23.12 -08 57 22.5 20.4 R 695 – Kitt Peak MPS 182780
2002 03 20.50538 13 13 20.23 -08 57 08.3   695 – Kitt Peak MPS 182780
2002 04 09.35308 12 56 06.04 -07 25 34.5 21.4 V 691 – Steward Observatory, Kitt Peak-Spacewatch MPS 182780
2002 04 09.37493 12 56 04.84 -07 25 27.6 21.2 V 691 – Steward Observatory, Kitt Peak-Spacewatch MPS 182780
2002 04 09.39659 12 56 03.65 -07 25 21.4 21.2 V 691 – Steward Observatory, Kitt Peak-Spacewatch MPS 182780
2004 11 11.23448 04 14 09.94 +24 09 07.6 20.3 V 691 – Steward Observatory, Kitt Peak-Spacewatch MPS 182780
2004 11 11.26505 04 14 08.19 +24 09 05.1 20.1 V 691 – Steward Observatory, Kitt Peak-Spacewatch MPS 182780
2004 11 11.29862 04 14 06.24 +24 09 02.0 20.2 V 691 – Steward Observatory, Kitt Peak-Spacewatch MPS 182780
2006 03 02.41720 13 00 41.44 -07 12 34.3 21.1 V 691 – Steward Observatory, Kitt Peak-Spacewatch MPS 181148
2006 03 02.43453 13 00 40.84 -07 12 32.0 21.2 V 691 – Steward Observatory, Kitt Peak-Spacewatch MPS 181148
2006 03 02.45184 13 00 40.30 -07 12 29.4 21.7 V 691 – Steward Observatory, Kitt Peak-Spacewatch MPS 181148
2006 03 09.45515 12 56 27.70 -06 52 16.0   691 – Steward Observatory, Kitt Peak-Spacewatch MPS 181148
2006 03 09.47244 12 56 26.94 -06 52 12.6   691 – Steward Observatory, Kitt Peak-Spacewatch MPS 181148
2006 03 09.48977 12 56 26.21 -06 52 09.2   691 – Steward Observatory, Kitt Peak-Spacewatch MPS 181148
2006 03 25.36471 12 43 45.19 -05 45 10.9 20.6 V G96 – Mt. Lemmon Survey MPS 181148
2006 03 25.37819 12 43 44.47 -05 45 07.3 20.9 V G96 – Mt. Lemmon Survey MPS 181148
2006 03 25.39174 12 43 43.71 -05 45 02.9 20.7 V G96 – Mt. Lemmon Survey MPS 181148
2006 03 25.40582 12 43 42.92 -05 44 59.2 20.5 V G96 – Mt. Lemmon Survey MPS 181148
2006 05 03.25723 12 14 33.86 -02 56 23.9 21.1 V G96 – Mt. Lemmon Survey MPS 181148
2006 05 03.26241 12 14 33.79 -02 56 22.8 21.6 V G96 – Mt. Lemmon Survey MPS 181148
2006 05 03.26767 12 14 33.61 -02 56 22.0 21.5 V G96 – Mt. Lemmon Survey MPS 181148
2006 05 03.27292 12 14 33.50 -02 56 21.1 21.0 V G96 – Mt. Lemmon Survey MPS 181148
2008 10 28.26679 03 40 21.59 +22 15 02.5 20.1 V 691 – Steward Observatory, Kitt Peak-Spacewatch MPS 261604
2008 10 28.28450 03 40 20.68 +22 15 01.7 21.0 V 691 – Steward Observatory, Kitt Peak-Spacewatch MPS 261604
2008 10 28.30222 03 40 19.82 +22 14 59.2 20.2 V 691 – Steward Observatory, Kitt Peak-Spacewatch MPS 261604
2008 11 01.26084 03 37 01.84 +22 08 03.1 20.1 V 691 – Steward Observatory, Kitt Peak-Spacewatch MPS 263262
2008 11 01.27857 03 37 00.85 +22 08 00.9 20.2 V 691 – Steward Observatory, Kitt Peak-Spacewatch MPS 263262
2008 11 01.29630 03 36 59.90 +22 07 58.8 20.2 V 691 – Steward Observatory, Kitt Peak-Spacewatch MPS 263262
2008 11 03.562820 03 34 57.614 +22 03 14.20 19.67 r F51 – Pan-STARRS 1, Haleakala MPS 288978
2008 11 03.574317 03 34 56.967 +22 03 12.41 19.66 r F51 – Pan-STARRS 1, Haleakala MPS 288978
2008 11 09.26884 03 29 30.94 +21 48 55.0 19.6 V G96 – Mt. Lemmon Survey MPS 264622
2008 11 09.27700 03 29 30.44 +21 48 53.9 19.7 V G96 – Mt. Lemmon Survey MPS 264622
2008 11 09.28510 03 29 29.94 +21 48 52.7 19.6 V G96 – Mt. Lemmon Survey MPS 264622
2008 11 18.15839 03 20 35.19 +21 21 17.3 18.8 V 703 – Catalina Sky Survey MPS 265275
2008 11 18.16561 03 20 34.65 +21 21 16.6 19.4 V 703 – Catalina Sky Survey MPS 265275
2008 11 18.17281 03 20 34.29 +21 21 14.4 19.3 V 703 – Catalina Sky Survey MPS 265275
2008 11 18.18012 03 20 33.86 +21 21 13.8 19.1 V 703 – Catalina Sky Survey MPS 265275
2008 11 20.24957 03 18 29.80 +21 14 08.8 19.4 V G96 – Mt. Lemmon Survey MPS 265275
2008 11 20.25510 03 18 29.44 +21 14 07.5 19.2 V G96 – Mt. Lemmon Survey MPS 265275
2008 11 20.26076 03 18 29.08 +21 14 06.6 19.3 V G96 – Mt. Lemmon Survey MPS 265275
2010 02 16.44827 12 43 22.47 -05 00 49.3 21.3 V G96 – Mt. Lemmon Survey MPS 316506
2010 02 16.45492 12 43 22.36 -05 00 48.9 20.9 V G96 – Mt. Lemmon Survey MPS 316506
2010 02 16.46154 12 43 22.18 -05 00 48.7 21.6 V G96 – Mt. Lemmon Survey MPS 316506
2010 02 16.46816 12 43 22.11 -05 00 47.8 21.7 V G96 – Mt. Lemmon Survey MPS 316506
2010 03 12.26292 12 29 23.92 -03 50 43.2 21.1 V 691 – Steward Observatory, Kitt Peak-Spacewatch MPS 317747
2010 03 12.28053 12 29 23.05 -03 50 38.4 20.7 V 691 – Steward Observatory, Kitt Peak-Spacewatch MPS 317747
2010 03 12.29814 12 29 22.15 -03 50 34.0 20.8 V 691 – Steward Observatory, Kitt Peak-Spacewatch MPS 317747
2010 03 20.23752 12 22 33.26 -03 12 50.8 20.7 V 691 – Steward Observatory, Kitt Peak-Spacewatch MPS 320527
2010 03 20.25520 12 22 32.32 -03 12 45.5 20.6 V 691 – Steward Observatory, Kitt Peak-Spacewatch MPS 320527
2010 03 20.27288 12 22 31.36 -03 12 39.7 20.6 V 691 – Steward Observatory, Kitt Peak-Spacewatch MPS 320527
2010 04 09.25949 12 05 07.40 -01 32 56.6 20.9 V G96 – Mt. Lemmon Survey MPS 322062
2010 04 09.26660 12 05 07.04 -01 32 54.8 21.0 V G96 – Mt. Lemmon Survey MPS 322062
2010 04 09.27375 12 05 06.68 -01 32 52.7 20.8 V G96 – Mt. Lemmon Survey MPS 322062
2010 04 09.28083 12 05 06.36 -01 32 50.7 20.8 V G96 – Mt. Lemmon Survey MPS 322062
2012 10 13.32880 03 10 42.71 +20 05 13.1 20.4 V 691 – Steward Observatory, Kitt Peak-Spacewatch MPS 437436
2012 10 13.34653 03 10 42.00 +20 05 11.9 20.4 V 691 – Steward Observatory, Kitt Peak-Spacewatch MPS 437436
2012 10 13.36434 03 10 41.35 +20 05 10.8 20.3 V 691 – Steward Observatory, Kitt Peak-Spacewatch MPS 437436
2012 10 16.606963 03 08 36.414 +20 00 53.67 20.6 g F51 – Pan-STARRS 1, Haleakala MPS 437436
2012 10 16.618830 03 08 35.909 +20 00 52.40 20.6 g F51 – Pan-STARRS 1, Haleakala MPS 437436
2012 10 19.528452 03 06 30.240 +19 55 51.88 20.2 w F51 – Pan-STARRS 1, Haleakala MPS 439181
2012 10 19.542695 03 06 29.564 +19 55 50.21 20.1 w F51 – Pan-STARRS 1, Haleakala MPS 439181
2012 10 19.556920 03 06 28.882 +19 55 48.61 20.1 w F51 – Pan-STARRS 1, Haleakala MPS 439181
2012 10 19.571154 03 06 28.202 +19 55 46.81 20.1 w F51 – Pan-STARRS 1, Haleakala MPS 439181
2012 10 21.28812 03 05 08.59 +19 52 17.6 20.3 V 691 – Steward Observatory, Kitt Peak-Spacewatch MPS 439181
2012 10 21.30582 03 05 07.70 +19 52 15.5 20.3 V 691 – Steward Observatory, Kitt Peak-Spacewatch MPS 439181
2012 10 21.32351 03 05 06.82 +19 52 13.5 20.2 V 691 – Steward Observatory, Kitt Peak-Spacewatch MPS 439181
2012 10 25.31270 03 01 46.84 +19 42 46.4 20.0 V 691 – Steward Observatory, Kitt Peak-Spacewatch MPS 439181
2012 10 25.33039 03 01 45.86 +19 42 43.8 20.1 V 691 – Steward Observatory, Kitt Peak-Spacewatch MPS 439181
2012 10 25.34808 03 01 44.92 +19 42 41.1 19.9 V 691 – Steward Observatory, Kitt Peak-Spacewatch MPS 439181
2012 11 03.471169 02 53 14.275 +19 14 43.22 19.6 i F51 – Pan-STARRS 1, Haleakala MPS 441229
2012 11 03.484426 02 53 13.464 +19 14 40.41 19.5 i F51 – Pan-STARRS 1, Haleakala MPS 441229
2012 11 04.44235 02 52 17.14 +19 11 16.9 19.6 V G96 – Mt. Lemmon Survey MPS 441229
2012 11 04.44942 02 52 16.71 +19 11 15.2 19.8 V G96 – Mt. Lemmon Survey MPS 441229
2012 11 04.45640 02 52 16.28 +19 11 13.6 19.5 V G96 – Mt. Lemmon Survey MPS 441229
2012 11 04.46347 02 52 15.85 +19 11 11.9 19.9 V G96 – Mt. Lemmon Survey MPS 441229
2012 11 07.91939 02 48 52.56 +18 58 32.9 19.8   A14 – Les Engarouines Observatory MPS 441229
2012 11 07.94110 02 48 51.27 +18 58 27.7 19.9   A14 – Les Engarouines Observatory MPS 441229
2012 11 07.96256 02 48 50.07 +18 58 22.8 19.8   A14 – Les Engarouines Observatory MPS 441229
2012 11 08.20736 02 48 35.63 +18 57 28.2 19.5   704 – Lincoln Laboratory ETS, New Mexico MPS 441229
2012 11 08.22215 02 48 34.74 +18 57 25.6 19.9   704 – Lincoln Laboratory ETS, New Mexico MPS 441229
2012 11 08.23771 02 48 33.82 +18 57 21.5 19.8   704 – Lincoln Laboratory ETS, New Mexico MPS 441229
2012 11 08.25246 02 48 32.84 +18 57 17.8 19.5   704 – Lincoln Laboratory ETS, New Mexico MPS 441229
2012 11 08.26767 02 48 32.04 +18 57 15.3 20.2   704 – Lincoln Laboratory ETS, New Mexico MPS 441229
2012 11 12.32609 02 44 34.711 +18 41 35.90 20.2 g F51 – Pan-STARRS 1, Haleakala MPS 443136
2012 11 12.33879 02 44 33.965 +18 41 33.06 20.1 g F51 – Pan-STARRS 1, Haleakala MPS 443136
2012 11 13.39037 02 43 33.13 +18 37 24.4 19.5 V 703 – Catalina Sky Survey MPS 443136
2012 11 13.39786 02 43 32.52 +18 37 23.3 19.0 V 703 – Catalina Sky Survey MPS 443136
